Погода в Игало

Черногория     42°27′25″N   18°30′36″E
темп.,
°C
ветер,
м/с
пор.,
м/с
влажн.,
%
обл.,
%
осадки,
мм/ч
давл.,
гПа
погр.,
м
15 мая, сб
сб1523:00+12в4778100 0.4 1013271
02:00+13вюв5886100 2.6 1012676
05:00+11юв4696100 6.6 1010354
08:00+12в4686100 17.6 1010463
11:00+12всв3490100 2.4 1010280
14:00+12св2384100 5.8 1011319
17:00+13ссв1279100 0.3 1011231
20:00+12зсз1286100 0.4 1012265
16 мая, вс
вс1623:00+12св0184100 0.1 1012206
02:00+11всв118522 0.1 1013120
05:00+11в118241 0.0 1012129
08:00+13ю118190 0.0 1013336
11:00+14юз228199 0.1 1014461
14:00+15юз227328 0.1 1013619
17:00+15ююв1175100 0.0 1013368
20:00+15вюв2276100 0.0 101283
17 мая, пн
пн1723:00+14в3479100 0.0 1013170
02:00+14в347374 0.0 1012132
05:00+13в347237 0.0 1011134
08:00+16юв46674 0.0 1012341
11:00+17ююв67692 0.0 1012689
14:00+17юв56685 0.0 1012611
17:00+17ююв467220 0.0 1012454
20:00+15в3384100 0.0 101249
18 мая, вт
вт1823:00+15всв44794 0.0 101249
02:00+15всв347583 0.0 101162
05:00+15всв457864 0.0 101199
08:00+17в237642 0.0 1012225
11:00+18ю447745 0.1 1013604
14:00+17ююв568818 0.3 1013511
17:00+17ююв56800 0.1 1012453
20:00+15вюв35919 0.2 1011130
19 мая, ср
ср1923:00+14всв34825 0.6 101168
02:00+14зсз3586100 2.0 1011466
05:00+11ссз457514 0.2 1013189
08:00+13зсз347210 0.3 1015416
11:00+14юз337430 0.3 1016788
14:00+14юз2178100 1.5 1015595
17:00+13всв01788 0.9 1016303
20:00+12св44772 1.0 1017178